TITAN 3C TRANSTAGE DEB, 1671

Orbit data source: Space-Track

TITAN 3C TRANSTAGE DEB, 1671 is space debris in LEO originally from a launch on Fri, 15 Oct 1965 UTC launched from the Air Force Eastern Test Range (AFETR). Debris objects in space refer to the collection of defunct objects orbiting the Earth. Examples of debris include non-operational satellites, rocket bodies, and fragments generated from explosions, collisions, or faulty payload assembly.

Loading next visibility...
Identifier
1671, 1965-082AJ
Orbit
LEO
Country
Flag of USUS
Related business
Manufacturer
Unknown
Mission
Spacecraft
Bus & Motor
Unknown
Mass
Unknown
Launch date (UTC)
1965-10-15 (60 years ago)
Launch vehicle
Unknown
Launch site
Air Force Eastern Test Range (AFETR)
Object type
Payload
Rocket body
Debris
Shape & HBR
Unknown shape, 0.3 m
Radar Cross Section
Medium (>0.1 m² and <1 m²)

Expand to show TLE details & history
Last TLE update: 18 hours ago

TLE from 18 hours ago
0 TITAN 3C TRANSTAGE DEB
1 01671U 65082AJ  26033.59306003  .00000511  00000-0  10921-3 0  9999
2 01671  32.1603 118.5211 0051985 113.3496 247.2627 14.53892665166794
Epoch: 2026-02-02T14:14Z
TLE epoch observation values (Epoch: 2026-02-02T14:14:00.386Z)
Latitude
-0.00001°
Longitude
132.23335°
Altitude
726.028 km
Speed
7.487 km/s
True Right ascension
07h 54m 05s
True Declination
0° 00' 00"
Sunlit
Object was in full shadow at epoch
Visualization orbit readout
Latitude
Unknown
Longitude
Unknown
Altitude
Unknown
Speed
Unknown
Apparent Right ascension
Unknown
Apparent Declination
Unknown
Sunlit
N/A
Visualization observer readout
Local Sidereal Time
09:44:57
Azimuth
Unknown
Elevation
Unknown
Doppler factor
Unknown
Orbital elements
Apogee altitude
753.422 km
Perigee altitude
679.658 km
Semi-major axis
7,094.677 km
Eccentricity
0.0052
Inclination
32.1603°
RAAN
118.5211°
Arg. of periapsis
113.3496°
True anomaly
246.71467°
Mean anomaly
247.2627°
Eccentric anomaly
246.98855°
Mean motion
3.63199 °/min
Orbital period
99.12 mins
BSTAR
0.00010921

Documentation

Showing up to 5 results
|